This demonstration page uses our WeatherBlox Daily Observations layout. Learn more.

Left ArrowRight Arrow

Hourly Observations for July 1, 2018

Temp ( °F °C ) Dew Point ( °F °C ) Humidity (%) Winds ( mph kmh ) Pressure ( in mb ) Visibility ( mi km ) Precip ( " mm )
12:04 am 00:04 Cloudy with Light Rain 63 17.2 62 16.7 97 97 WNW 18 30 29.91 1013 10 16 0.01 0.25
12:53 am 00:53 Cloudy with Light Rain 63 17.2 62 16.7 97 97 N 20 31 29.85 1011 10 16 0.14 3.56
1:18 am 01:18 Cloudy with Light Rain 63 17.2 62 16.7 97 97 NNW 16 26 29.91 1013 10 16 0.02 0.51
1:28 am 01:28 Cloudy with Light Rain 64 18 63 17 94 94 NNW 17 28 29.85 1011 10 16 0.00 0.00
1:53 am 01:53 Cloudy 63 17.2 62 16.7 97 97 NNW 14 22 29.86 1011 10 16 0.02 0.51
2:16 am 02:16 Mostly Cloudy 63 17 63 17 100 100 N 8 13 29.85 1011 10 16 0.00 0.00
2:27 am 02:27 Partly Cloudy 63 17.2 61 16.1 93 93 NNW 7 11 29.83 1010 10 16 0.00 0.00
2:37 am 02:37 Mostly Cloudy 63 17.2 61 16.1 93 93 NNW 7 11 29.83 1010 10 16 0.00 0.00
2:53 am 02:53 Cloudy 63 17.2 62 16.7 97 97 WNW 8 13 29.84 1010 10 16 0.00 0.00
3:53 am 03:53 Cloudy 63 17.2 62 16.7 97 97 NW 8 13 29.85 1011 10 16 0.00 0.00
4:53 am 04:53 Cloudy 63 17.2 61 16.1 93 93 WNW 9 15 29.88 1012 10 16 0.00 0.00
5:53 am 05:53 Cloudy 61 16.1 59 15 93 93 WNW 13 20 29.91 1013 10 16 0.00 0.00
6:53 am 06:53 Partly Cloudy 60 15.6 58 14.4 93 93 WNW 10 17 29.92 1013 10 16 0.00 0.00
7:53 am 07:53 Sunny 62 16.7 58 14.4 86 86 NW 9 15 29.93 1014 10 16 0.00 0.00
8:53 am 08:53 Sunny 65 18.3 58 14.4 78 78 NW 10 17 29.95 1014 10 16 0.00 0.00
9:53 am 09:53 Sunny 68 20 59 15 73 73 WNW 8 13 29.95 1014 10 16 0.00 0.00
10:53 am 10:53 Sunny 71 21.7 58 14.4 63 63 NW 10 17 29.95 1014 10 16 0.00 0.00
11:53 am 11:53 Sunny 74 23.3 58 14.4 57 57 W 12 19 29.96 1015 10 16 0.00 0.00
12:53 pm 12:53 Sunny 75 23.9 59 15 58 58 WNW 10 17 29.97 1015 10 16 0.00 0.00
1:53 pm 13:53 Sunny 76 24.4 59 15 56 56 NW 7 11 29.96 1015 10 16 0.00 0.00
2:53 pm 14:53 Mostly Sunny 77 25 60 15.6 56 56 NNW 6 9 29.96 1015 10 16 0.00 0.00
3:53 pm 15:53 Mostly Sunny 77 25 59 15 54 54 WNW 3 6 29.96 1015 10 16 0.00 0.00
4:53 pm 16:53 Sunny 77 25 60 15.6 56 56 Calm 29.96 1015 10 16 0.00 0.00
5:53 pm 17:53 Sunny 78 25.6 58 14.4 50 50 W 5 7 29.96 1015 10 16 0.00 0.00
6:53 pm 18:53 Sunny 78 25.6 59 15 52 52 NW 3 6 29.96 1015 10 16 0.00 0.00
7:53 pm 19:53 Sunny 77 25 60 15.6 56 56 SW 3 6 29.96 1015 10 16 0.00 0.00
8:53 pm 20:53 Sunny 77 25 60 15.6 56 56 SSE 3 6 29.97 1015 10 16 0.00 0.00
9:53 pm 21:53 Clear 71 21.7 61 16.1 71 71 SE 3 6 29.98 1015 10 16 0.00 0.00
10:53 pm 22:53 Clear 69 20.6 62 16.7 78 78 Calm 29.99 1016 9 14 0.00 0.00
11:53 pm 23:53 Clear 69 20.6 61 16.1 76 76 SSE 5 7 29.99 1016 10 16 0.00 0.00

Powered by AerisWeather